,,PA_Meas_PMT16A,,PR_Meas_QMR101_102,,RH_Meas_QMH101,,SR_Meas_QMS101,,TA_Meas_QMH101,,GenWind,,GenWind,
time,status,PA,status,PR,status,RH,status,SR,status,TA,status,DirAvg,status,SpdAvg,
2011-05-25, 00:00:04,VALID,917.345,VALID,0,VALID,94.8277,VALID,0,VALID,21.2811,VALID,14,VALID,0,
2011-05-25, 00:01:04,VALID,917.344,VALID,0,VALID,94.8582,VALID,0,VALID,21.3006,VALID,14,VALID,0.00117188,
2011-05-25, 00:02:04,VALID,917.359,VALID,0,VALID,94.8734,VALID,0,VALID,21.3412,VALID,14,VALID,0,
2011-05-25, 00:03:04,VALID,917.349,VALID,0,VALID,94.8277,VALID,0,VALID,21.3201,VALID,14,VALID,0.415625,
2011-05-25, 00:04:04,VALID,917.319,VALID,0,VALID,94.7819,VALID,0,VALID,21.3396,VALID,14,VALID,0.378516,
2011-05-25, 00:05:04,VALID,917.32,VALID,0,VALID,94.8048,VALID,0,VALID,21.3201,VALID,14,VALID,0.225781,
2011-05-25, 00:06:04,VALID,917.315,VALID,0,VALID,94.8048,VALID,0,VALID,21.3201,VALID,14,VALID,0.182812,
2011-05-25, 00:07:04,VALID,917.319,VALID,0,VALID,94.7819,VALID,0,VALID,21.3396,VALID,14,VALID,0.453906,
2011-05-25, 00:08:04,VALID,917.293,VALID,0,VALID,94.6981,VALID,0,VALID,21.3201,VALID,14,VALID,1.21875,
2011-05-25, 00:09:04,VALID,917.278,VALID,0,VALID,94.7591,VALID,0,VALID,21.3006,VALID,14,VALID,1.1332,
2011-05-25, 00:10:04,VALID,917.297,VALID,0,VALID,94.8353,VALID,0,VALID,21.2811,VALID,14,VALID,0.9125,
2011-05-25, 00:11:04,VALID,917.271,VALID,0,VALID,94.8124,VALID,0,VALID,21.2616,VALID,14,VALID,0.494531,
2011-05-25, 00:12:04,VALID,917.276,VALID,0,VALID,94.7667,VALID,0,VALID,21.2616,VALID,14,VALID,0.273047,
2011-05-25, 00:13:04,VALID,917.249,VALID,0,VALID,94.7743,VALID,0,VALID,21.2616,VALID,14,VALID,0.00195313,
2011-05-25, 00:14:04,VALID,917.236,VALID,0,VALID,94.7743,VALID,0,VALID,21.2421,VALID,14,VALID,0.396094,
2011-05-25, 00:15:04,VALID,917.195,VALID,0,VALID,94.7438,VALID,0,VALID,21.2616,VALID,14,VALID,0.261328,
2011-05-25, 00:16:04,VALID,917.219,VALID,0,VALID,94.6905,VALID,0,VALID,21.2421,VALID,14,VALID,0.776953,
2011-05-25, 00:17:04,VALID,917.199,VALID,0,VALID,94.6905,VALID,0,VALID,21.2421,VALID,14,VALID,0.908203,
2011-05-25, 00:18:04,VALID,917.214,VALID,0,VALID,94.7591,VALID,0,VALID,21.2226,VALID,14,VALID,0.7375,
2011-05-25, 00:19:04,VALID,917.184,VALID,0,VALID,94.8124,VALID,0,VALID,21.2031,VALID,14,VALID,0.504687,
2011-05-25, 00:20:04,VALID,917.198,VALID,0,VALID,94.9192,VALID,0,VALID,21.1852,VALID,14,VALID,0.510938,
2011-05-25, 00:21:04,VALID,917.154,VALID,0,VALID,95.003,VALID,0,VALID,21.1852,VALID,14,VALID,0.444141,
2011-05-25, 00:22:04,VALID,917.138,VALID,0,VALID,95.0564,VALID,0,VALID,21.164,VALID,14,VALID,0.469141,
2011-05-25, 00:23:04,VALID,917.121,VALID,0,VALID,95.0716,VALID,0,VALID,21.164,VALID,14,VALID,0.492578,
2011-05-25, 00:24:04,VALID,917.128,VALID,0,VALID,95.0869,VALID,0,VALID,21.1836,VALID,14,VALID,0.903516,
2011-05-25, 00:25:04,VALID,917.106,VALID,0,VALID,95.0564,VALID,0,VALID,21.2031,VALID,14,VALID,0.622266,
2011-05-25, 00:26:04,VALID,917.112,VALID,0,VALID,95.0488,VALID,0,VALID,21.1803,VALID,14,VALID,0.542969,
2011-05-25, 00:27:04,VALID,917.084,VALID,0,VALID,95.0488,VALID,0,VALID,21.2648,VALID,14,VALID,0.331641,
2011-05-25, 00:28:04,VALID,917.069,VALID,0,VALID,94.9496,VALID,0,VALID,21.2616,VALID,14,VALID,0.373437,
2011-05-25, 00:29:04,VALID,917.031,VALID,0,VALID,94.8429,VALID,0,VALID,21.2616,VALID,14,VALID,0.735547,
2011-05-25, 00:30:04,VALID,916.994,VALID,0,VALID,94.8048,VALID,0,VALID,21.2405,VALID,14,VALID,0.498437,
2011-05-25, 00:31:04,VALID,917.013,VALID,0,VALID,94.7209,VALID,0,VALID,21.221,VALID,14,VALID,0.440234,
2011-05-25, 00:32:04,VALID,916.97,VALID,0,VALID,94.7286,VALID,0,VALID,21.2843,VALID,14,VALID,0.595703,
2011-05-25, 00:33:04,VALID,916.977,VALID,0,VALID,94.6905,VALID,0,VALID,21.2015,VALID,14,VALID,0.251563,
2011-05-25, 00:34:04,VALID,916.977,VALID,0,VALID,94.6371,VALID,0,VALID,21.2015,VALID,14,VALID,0.466406,
2011-05-25, 00:35:04,VALID,916.958,VALID,0,VALID,94.5761,VALID,0,VALID,21.2031,VALID,14,VALID,0.333594,
2011-05-25, 00:36:04,VALID,916.955,VALID,0,VALID,94.5913,VALID,0,VALID,21.2242,VALID,14,VALID,0.862109,
2011-05-25, 00:37:04,VALID,916.963,VALID,0,VALID,94.5532,VALID,0,VALID,21.164,VALID,14,VALID,0.871875,
2011-05-25, 00:38:04,VALID,916.934,VALID,0,VALID,94.5456,VALID,0,VALID,21.1234,VALID,14,VALID,0.45625,
2011-05-25, 00:39:04,VALID,916.933,VALID,0,VALID,94.5304,VALID,0,VALID,21.1445,VALID,14,VALID,0.376172,
2011-05-25, 00:40:04,VALID,916.932,VALID,0,VALID,94.4999,VALID,0,VALID,21.1657,VALID,14,VALID,0.657031,
2011-05-25, 00:41:04,VALID,916.922,VALID,0,VALID,94.5304,VALID,0,VALID,21.1689,VALID,14,VALID,0.835547,
2011-05-25, 00:42:04,VALID,916.904,VALID,0,VALID,94.6218,VALID,0,VALID,21.1071,VALID,14,VALID,0.759375,
2011-05-25, 00:43:04,VALID,916.898,VALID,0,VALID,94.6828,VALID,0,VALID,21.0649,VALID,14,VALID,0.694141,
2011-05-25, 00:44:04,VALID,916.874,VALID,0,VALID,94.7591,VALID,0,VALID,21.1721,VALID,14,VALID,0.410937,
2011-05-25, 00:45:04,VALID,916.864,VALID,0,VALID,94.7438,VALID,0,VALID,21.086,VALID,14,VALID,0.310547,
2011-05-25, 00:46:04,VALID,916.835,VALID,0,VALID,94.7057,VALID,0,VALID,21.1055,VALID,14,VALID,0.360547,
2011-05-25, 00:47:04,VALID,916.805,VALID,0,VALID,94.6828,VALID,0,VALID,21.086,VALID,14,VALID,0.433203,
2011-05-25, 00:48:04,VALID,916.811,VALID,0,VALID,94.7209,VALID,0,VALID,21.1055,VALID,14,VALID,0.617188,
2011-05-25, 00:49:04,VALID,916.81,VALID,0,VALID,94.6523,VALID,0,VALID,21.1071,VALID,14,VALID,0.521875,
2011-05-25, 00:50:04,VALID,916.796,VALID,0,VALID,94.66,VALID,0,VALID,21.0665,VALID,14,VALID,0.452344,
2011-05-25, 00:51:04,VALID,916.788,VALID,0,VALID,94.6905,VALID,0,VALID,21.0665,VALID,14,VALID,0.512891,
2011-05-25, 00:52:04,VALID,916.775,VALID,0,VALID,94.7591,VALID,0,VALID,21.0665,VALID,14,VALID,0.358984,
2011-05-25, 00:53:04,VALID,916.769,VALID,0,VALID,94.8277,VALID,0,VALID,21.0665,VALID,14,VALID,0.23125,
2011-05-25, 00:54:04,VALID,916.749,VALID,0,VALID,94.8124,VALID,0,VALID,21.047,VALID,14,VALID,0.292578,
2011-05-25, 00:55:04,VALID,916.741,VALID,0,VALID,94.8582,VALID,0,VALID,21.0665,VALID,14,VALID,0,
2011-05-25, 00:56:04,VALID,916.74,VALID,0,VALID,94.7667,VALID,0,VALID,21.086,VALID,14,VALID,0,
2011-05-25, 00:57:04,VALID,916.729,VALID,0,VALID,94.7133,VALID,0,VALID,21.1055,VALID,14,VALID,0.0167969,
2011-05-25, 00:58:04,VALID,916.696,VALID,0,VALID,94.599,VALID,0,VALID,21.1055,VALID,14,VALID,0,
2011-05-25, 00:59:04,VALID,916.688,VALID,0,VALID,94.5075,VALID,0,VALID,21.086,VALID,14,VALID,0,
2011-05-25, 01:00:04,VALID,916.653,VALID,0,VALID,94.4922,VALID,0,VALID,21.086,VALID,14,VALID,0,
2011-05-25, 01:01:04,VALID,916.659,VALID,0,VALID,94.5304,VALID,0,VALID,21.0665,VALID,14,VALID,0,
2011-05-25, 01:02:04,VALID,916.651,VALID,0,VALID,94.5761,VALID,0,VALID,21.0665,VALID,14,VALID,0,
2011-05-25, 01:03:04,VALID,916.62,VALID,0,VALID,94.5761,VALID,0,VALID,21.0665,VALID,14,VALID,0,
2011-05-25, 01:04:04,VALID,916.636,VALID,0,VALID,94.599,VALID,0,VALID,21.0665,VALID,14,VALID,0,
2011-05-25, 01:05:04,VALID,916.64,VALID,0,VALID,94.5532,VALID,0,VALID,21.0454,VALID,14,VALID,0.447656,
2011-05-25, 01:06:04,VALID,916.617,VALID,0,VALID,94.5456,VALID,0,VALID,21.0665,VALID,14,VALID,0.369922,
2011-05-25, 01:07:04,VALID,916.602,VALID,0,VALID,94.5227,VALID,0,VALID,21.047,VALID,14,VALID,0.313281,
2011-05-25, 01:08:04,VALID,916.614,VALID,0,VALID,94.5151,VALID,0,VALID,21.0275,VALID,14,VALID,0.450781,
2011-05-25, 01:09:04,VALID,916.579,VALID,0,VALID,94.5227,VALID,0,VALID,21.008,VALID,14,VALID,0.304297,
2011-05-25, 01:10:04,VALID,916.557,VALID,0,VALID,94.5456,VALID,0,VALID,21.008,VALID,14,VALID,0.396484,
2011-05-25, 01:11:04,VALID,916.527,VALID,0,VALID,94.6676,VALID,0,VALID,20.9885,VALID,14,VALID,0.510547,
2011-05-25, 01:12:04,VALID,916.535,VALID,0,VALID,94.6828,VALID,0,VALID,20.969,VALID,14,VALID,0.236328,
2011-05-25, 01:13:04,VALID,916.499,VALID,0,VALID,94.6676,VALID,0,VALID,20.9706,VALID,14,VALID,0.392188,
2011-05-25, 01:14:04,VALID,916.519,VALID,0,VALID,94.6676,VALID,0,VALID,20.9105,VALID,14,VALID,0.366016,
2011-05-25, 01:15:04,VALID,916.479,VALID,0,VALID,94.7743,VALID,0,VALID,20.93,VALID,14,VALID,0.00195313,
2011-05-25, 01:16:04,VALID,916.487,VALID,0,VALID,94.8963,VALID,0,VALID,20.9105,VALID,14,VALID,0.394531,
2011-05-25, 01:17:04,VALID,916.501,VALID,0,VALID,94.9268,VALID,0,VALID,20.9105,VALID,14,VALID,0.606641,
2011-05-25, 01:18:04,VALID,916.473,VALID,0,VALID,95.0106,VALID,0,VALID,20.9511,VALID,14,VALID,0.494922,
2011-05-25, 01:19:04,VALID,916.451,VALID,0,VALID,95.0716,VALID,0,VALID,20.9495,VALID,14,VALID,0.0691406,
2011-05-25, 01:20:04,VALID,916.471,VALID,0,VALID,95.0716,VALID,0,VALID,20.9706,VALID,14,VALID,0.157031,
2011-05-25, 01:21:04,VALID,916.466,VALID,0,VALID,95.064,VALID,0,VALID,20.969,VALID,14,VALID,0,
2011-05-25, 01:22:04,VALID,916.486,VALID,0,VALID,95.064,VALID,0,VALID,20.9674,VALID,14,VALID,0,
2011-05-25, 01:23:04,VALID,916.489,VALID,0,VALID,95.0411,VALID,0,VALID,21.008,VALID,14,VALID,0,
2011-05-25, 01:24:04,VALID,916.453,VALID,0,VALID,95.003,VALID,0,VALID,21.008,VALID,14,VALID,0,
2011-05-25, 01:25:04,VALID,916.416,VALID,0,VALID,94.9725,VALID,0,VALID,21.0486,VALID,14,VALID,0,
2011-05-25, 01:26:04,VALID,916.421,VALID,0,VALID,94.9573,VALID,0,VALID,21.0681,VALID,14,VALID,0,
2011-05-25, 01:27:04,VALID,916.395,VALID,0,VALID,95.0259,VALID,0,VALID,21.0665,VALID,15,VALID,0,
2011-05-25, 01:28:04,VALID,916.379,VALID,0,VALID,94.9268,VALID,0,VALID,21.086,VALID,14,VALID,0,
2011-05-25, 01:29:04,VALID,916.346,VALID,0,VALID,94.7591,VALID,0,VALID,21.0665,VALID,14,VALID,0,
2011-05-25, 01:30:04,VALID,916.318,VALID,0,VALID,94.6981,VALID,0,VALID,21.0665,VALID,14,VALID,0,
2011-05-25, 01:31:04,VALID,916.317,VALID,0,VALID,94.6295,VALID,0,VALID,21.0681,VALID,14,VALID,0.059375,
2011-05-25, 01:32:04,VALID,916.256,VALID,0,VALID,94.6218,VALID,0,VALID,21.0486,VALID,14,VALID,0.218359,
2011-05-25, 01:33:04,VALID,916.255,VALID,0,VALID,94.7514,VALID,0,VALID,21.047,VALID,14,VALID,0.267969,
2011-05-25, 01:34:04,VALID,916.248,VALID,0,VALID,94.7896,VALID,0,VALID,21.0486,VALID,14,VALID,0.243359,
2011-05-25, 01:35:04,VALID,916.233,VALID,0,VALID,94.8048,VALID,0,VALID,21.0275,VALID,14,VALID,0.173828,
2011-05-25, 01:36:04,VALID,916.204,VALID,0,VALID,94.9192,VALID,0,VALID,21.0275,VALID,14,VALID,0.448828,
2011-05-25, 01:37:04,VALID,916.189,VALID,0,VALID,95.0716,VALID,0,VALID,21.047,VALID,14,VALID,0.440625,
2011-05-25, 01:38:04,VALID,916.198,VALID,0,VALID,95.186,VALID,0,VALID,21.0665,VALID,14,VALID,0.442578,
2011-05-25, 01:39:04,VALID,916.171,VALID,0,VALID,95.2241,VALID,0.107441,VALID,21.0665,VALID,14,VALID,0.288672,
2011-05-25, 01:40:04,VALID,916.17,VALID,0,VALID,95.3232,VALID,0,VALID,21.086,VALID,14,VALID,0,
2011-05-25, 01:41:04,VALID,916.2,VALID,0,VALID,95.3537,VALID,0,VALID,21.1055,VALID,14,VALID,0,
2011-05-25, 01:42:04,VALID,916.21,VALID,0,VALID,95.3461,VALID,0,VALID,21.1461,VALID,14,VALID,0,
2011-05-25, 01:43:04,VALID,916.214,VALID,0,VALID,95.3537,VALID,0,VALID,21.1445,VALID,14,VALID,0,
2011-05-25, 01:44:04,VALID,916.225,VALID,0,VALID,95.3003,VALID,0,VALID,21.164,VALID,14,VALID,0,
2011-05-25, 01:45:04,VALID,916.263,VALID,0,VALID,95.2698,VALID,0,VALID,21.2047,VALID,14,VALID,0.349219,
2011-05-25, 01:46:04,VALID,916.269,VALID,0,VALID,95.2012,VALID,0,VALID,21.2031,VALID,14,VALID,0.390625,
2011-05-25, 01:47:04,VALID,916.271,VALID,0,VALID,95.1326,VALID,0,VALID,21.2047,VALID,14,VALID,0.264453,
2011-05-25, 01:48:04,VALID,916.277,VALID,0,VALID,95.1097,VALID,0,VALID,21.1836,VALID,14,VALID,0.324219,
2011-05-25, 01:49:04,VALID,916.278,VALID,0,VALID,95.1021,VALID,0,VALID,21.1819,VALID,14,VALID,0.468359,
2011-05-25, 01:50:04,VALID,916.237,VALID,0,VALID,95.1174,VALID,0,VALID,21.1836,VALID,14,VALID,0.148438,
2011-05-25, 01:51:04,VALID,916.224,VALID,0,VALID,95.1326,VALID,0,VALID,21.2031,VALID,14,VALID,0.217187,
2011-05-25, 01:52:04,VALID,916.207,VALID,0,VALID,95.1631,VALID,0,VALID,21.2031,VALID,14,VALID,0.329688,
2011-05-25, 01:53:04,VALID,916.188,VALID,0,VALID,95.1631,VALID,0,VALID,21.2226,VALID,14,VALID,0.267969,
2011-05-25, 01:54:04,VALID,916.153,VALID,0,VALID,95.1097,VALID,0,VALID,21.2226,VALID,14,VALID,0.428125,
2011-05-25, 01:55:04,VALID,916.145,VALID,0,VALID,95.0564,VALID,0,VALID,21.1819,VALID,14,VALID,0.398438,
2011-05-25, 01:56:04,VALID,916.104,VALID,0,VALID,95.0411,VALID,0,VALID,21.2031,VALID,14,VALID,0.495703,
2011-05-25, 01:57:04,VALID,916.088,VALID,0,VALID,95.0564,VALID,0,VALID,21.2242,VALID,14,VALID,0.261719,
2011-05-25, 01:58:04,VALID,916.082,VALID,0,VALID,95.0259,VALID,0,VALID,21.2031,VALID,14,VALID,0.0410156,
2011-05-25, 01:59:04,VALID,915.995,VALID,0,VALID,95.1174,VALID,0,VALID,21.2031,VALID,14,VALID,0.494531,
2011-05-25, 02:00:04,VALID,916.021,VALID,0,VALID,95.1174,VALID,0,VALID,21.2031,VALID,15,VALID,0.221094,
2011-05-25, 02:01:04,VALID,916.012,VALID,0,VALID,95.0335,VALID,0,VALID,21.2226,VALID,15,VALID,0.0269531,
2011-05-25, 02:02:04,VALID,915.971,VALID,0,VALID,94.9801,VALID,0,VALID,21.2437,VALID,15,VALID,0,
2011-05-25, 02:03:04,VALID,915.962,VALID,0,VALID,94.9801,VALID,0,VALID,21.2421,VALID,15,VALID,0,
2011-05-25, 02:04:05,VALID,915.974,VALID,0,VALID,94.9192,VALID,0,VALID,21.2827,VALID,15,VALID,0.527344,
2011-05-25, 02:05:05,VALID,915.948,VALID,0,VALID,94.7972,VALID,0,VALID,21.2616,VALID,15,VALID,0.438672,
2011-05-25, 02:06:05,VALID,915.911,VALID,0,VALID,94.7819,VALID,0,VALID,21.2827,VALID,15,VALID,0.4125,
2011-05-25, 02:07:05,VALID,915.9,VALID,0,VALID,94.7743,VALID,0,VALID,21.2616,VALID,15,VALID,0.309766,
2011-05-25, 02:08:05,VALID,915.912,VALID,0,VALID,94.7514,VALID,0,VALID,21.2827,VALID,15,VALID,0,
2011-05-25, 02:09:05,VALID,915.889,VALID,0,VALID,94.8048,VALID,0,VALID,21.2811,VALID,15,VALID,0.284766,
2011-05-25, 02:10:05,VALID,915.875,VALID,0,VALID,94.8124,VALID,0,VALID,21.2811,VALID,15,VALID,0,
2011-05-25, 02:11:05,VALID,915.904,VALID,0,VALID,94.7972,VALID,0,VALID,21.2616,VALID,15,VALID,0.382031,
2011-05-25, 02:12:05,VALID,915.853,VALID,0,VALID,94.8429,VALID,0,VALID,21.2811,VALID,15,VALID,0.615625,
2011-05-25, 02:13:05,VALID,915.839,VALID,0,VALID,94.8353,VALID,0,VALID,21.2616,VALID,15,VALID,0.711719,
2011-05-25, 02:14:05,VALID,915.829,VALID,0,VALID,94.8505,VALID,0,VALID,21.2616,VALID,15,VALID,0.710938,
2011-05-25, 02:15:05,VALID,915.825,VALID,0,VALID,94.8582,VALID,0,VALID,21.2226,VALID,15,VALID,0.58125,
2011-05-25, 02:16:05,VALID,915.804,VALID,0,VALID,94.881,VALID,0,VALID,21.2031,VALID,15,VALID,0.687109,
2011-05-25, 02:17:05,VALID,915.809,VALID,0,VALID,94.8734,VALID,0,VALID,21.1852,VALID,15,VALID,0.944141,
2011-05-25, 02:18:05,VALID,915.796,VALID,0,VALID,94.9496,VALID,0,VALID,21.125,VALID,15,VALID,0.773828,
2011-05-25, 02:19:05,VALID,915.841,VALID,0,VALID,95.0716,VALID,0,VALID,21.1266,VALID,15,VALID,0.866797,
2011-05-25, 02:20:05,VALID,915.813,VALID,0,VALID,95.1631,VALID,0,VALID,21.086,VALID,15,VALID,0.528125,
2011-05-25, 02:21:05,VALID,915.81,VALID,0,VALID,95.2927,VALID,0,VALID,21.047,VALID,15,VALID,0.521484,
2011-05-25, 02:22:05,VALID,915.854,VALID,0,VALID,95.4147,VALID,0,VALID,21.0275,VALID,15,VALID,0.305859,
2011-05-25, 02:23:05,VALID,915.813,VALID,0,VALID,95.4757,VALID,0,VALID,21.047,VALID,15,VALID,0.321875,
2011-05-25, 02:24:05,VALID,915.839,VALID,0,VALID,95.5671,VALID,0,VALID,21.0275,VALID,15,VALID,0.450781,
2011-05-25, 02:25:05,VALID,915.811,VALID,0,VALID,95.6129,VALID,0,VALID,21.0291,VALID,15,VALID,0.0742188,
2011-05-25, 02:26:05,VALID,915.789,VALID,0,VALID,95.6586,VALID,0,VALID,21.0064,VALID,15,VALID,0.160547,
2011-05-25, 02:27:05,VALID,915.81,VALID,0,VALID,95.6815,VALID,0,VALID,20.9853,VALID,15,VALID,0.0726563,
2011-05-25, 02:28:05,VALID,915.787,VALID,0,VALID,95.7272,VALID,0,VALID,21.0259,VALID,15,VALID,0,
2011-05-25, 02:29:05,VALID,915.787,VALID,0,VALID,95.7349,VALID,0,VALID,21.047,VALID,15,VALID,0,
2011-05-25, 02:30:05,VALID,915.796,VALID,0,VALID,95.7501,VALID,0,VALID,21.0048,VALID,15,VALID,0,
2011-05-25, 02:31:05,VALID,915.779,VALID,0,VALID,95.7577,VALID,0,VALID,21.0064,VALID,15,VALID,0,
2011-05-25, 02:32:05,VALID,915.739,VALID,0,VALID,95.7196,VALID,0,VALID,21.008,VALID,15,VALID,0,
2011-05-25, 02:33:05,VALID,915.737,VALID,0,VALID,95.6129,VALID,0,VALID,20.9674,VALID,15,VALID,0.554688,
2011-05-25, 02:34:05,VALID,915.743,VALID,0,VALID,95.651,VALID,0,VALID,20.969,VALID,15,VALID,0.388672,
2011-05-25, 02:35:05,VALID,915.727,VALID,0,VALID,95.712,VALID,0,VALID,20.9284,VALID,15,VALID,0.349609,
2011-05-25, 02:36:05,VALID,915.713,VALID,0,VALID,95.7577,VALID,0,VALID,20.9917,VALID,15,VALID,0.271094,
2011-05-25, 02:37:05,VALID,915.689,VALID,0,VALID,95.7958,VALID,0,VALID,20.8878,VALID,15,VALID,0.0121094,
2011-05-25, 02:38:05,VALID,915.663,VALID,0,VALID,95.8416,VALID,0,VALID,21.0128,VALID,15,VALID,0,
2011-05-25, 02:39:05,VALID,915.699,VALID,0,VALID,95.834,VALID,0,VALID,20.9511,VALID,15,VALID,0.477344,
2011-05-25, 02:40:05,VALID,915.637,VALID,0,VALID,95.8797,VALID,0,VALID,20.9316,VALID,15,VALID,0.215234,
2011-05-25, 02:41:05,VALID,915.639,VALID,0,VALID,95.9026,VALID,0,VALID,20.891,VALID,15,VALID,0,
2011-05-25, 02:42:05,VALID,915.641,VALID,0,VALID,95.9483,VALID,0,VALID,20.9105,VALID,15,VALID,0.2125,
2011-05-25, 02:43:05,VALID,915.608,VALID,0,VALID,95.9254,VALID,0,VALID,20.8925,VALID,15,VALID,0,
2011-05-25, 02:44:05,VALID,915.604,VALID,0,VALID,95.9941,VALID,0,VALID,20.9542,VALID,15,VALID,0.00117188,
2011-05-25, 02:45:05,VALID,915.62,VALID,0,VALID,96.0093,VALID,0,VALID,20.912,VALID,15,VALID,0.526953,
2011-05-25, 02:46:05,VALID,915.588,VALID,0,VALID,95.9712,VALID,0,VALID,20.8699,VALID,15,VALID,0.602734,
2011-05-25, 02:47:05,VALID,915.588,VALID,0,VALID,95.9407,VALID,0,VALID,20.8519,VALID,15,VALID,0.517969,
2011-05-25, 02:48:05,VALID,915.566,VALID,0,VALID,95.9178,VALID,0,VALID,20.8551,VALID,15,VALID,0.458594,
2011-05-25, 02:49:05,VALID,915.623,VALID,0,VALID,95.9331,VALID,0,VALID,20.8551,VALID,14,VALID,0.334766,
2011-05-25, 02:50:05,VALID,915.604,VALID,0,VALID,95.9788,VALID,0,VALID,20.7349,VALID,15,VALID,0.349219,
2011-05-25, 02:51:05,VALID,915.626,VALID,0,VALID,95.9483,VALID,0,VALID,20.7365,VALID,15,VALID,0.373437,
2011-05-25, 02:52:05,VALID,915.6,VALID,0,VALID,96.0322,VALID,0,VALID,20.6748,VALID,15,VALID,0.401563,
2011-05-25, 02:53:05,VALID,915.617,VALID,0,VALID,96.055,VALID,0,VALID,20.6764,VALID,15,VALID,0.512109,
2011-05-25, 02:54:05,VALID,915.627,VALID,0,VALID,96.0932,VALID,0,VALID,20.7201,VALID,15,VALID,0.385156,
2011-05-25, 02:55:05,VALID,915.622,VALID,0,VALID,96.177,VALID,0,VALID,20.6975,VALID,15,VALID,0.127344,
2011-05-25, 02:56:05,VALID,915.587,VALID,0,VALID,96.2075,VALID,0,VALID,20.6553,VALID,15,VALID,0,
2011-05-25, 02:57:05,VALID,915.562,VALID,0,VALID,96.2609,VALID,0,VALID,20.6764,VALID,15,VALID,0,
2011-05-25, 02:58:05,VALID,915.557,VALID,0,VALID,96.299,VALID,0,VALID,20.717,VALID,15,VALID,0,
2011-05-25, 02:59:05,VALID,915.563,VALID,0,VALID,96.3295,VALID,0,VALID,20.7576,VALID,15,VALID,0,
2011-05-25, 03:00:05,VALID,915.56,VALID,0,VALID,96.3142,VALID,0,VALID,20.756,VALID,15,VALID,0.273047,
2011-05-25, 03:01:05,VALID,915.555,VALID,0,VALID,96.2685,VALID,0,VALID,20.7154,VALID,15,VALID,0.159766,
2011-05-25, 03:02:05,VALID,915.571,VALID,0,VALID,96.2304,VALID,0,VALID,20.6764,VALID,15,VALID,0.176172,
2011-05-25, 03:03:05,VALID,915.617,VALID,0,VALID,96.2456,VALID,0,VALID,20.6764,VALID,15,VALID,0.277344,
2011-05-25, 03:04:05,VALID,915.604,VALID,0,VALID,96.2609,VALID,0,VALID,20.7365,VALID,15,VALID,0.0550781,
2011-05-25, 03:05:05,VALID,915.602,VALID,0,VALID,96.2837,VALID,0,VALID,20.756,VALID,15,VALID,0.181641,
2011-05-25, 03:06:05,VALID,915.617,VALID,0,VALID,96.2533,VALID,0,VALID,20.7755,VALID,15,VALID,0.360156,
2011-05-25, 03:07:05,VALID,915.633,VALID,0,VALID,96.2609,VALID,0,VALID,20.7966,VALID,15,VALID,0.277734,
2011-05-25, 03:08:05,VALID,915.6,VALID,0,VALID,96.1846,VALID,0,VALID,20.7365,VALID,15,VALID,0.628516,
2011-05-25, 03:09:05,VALID,915.577,VALID,0,VALID,96.2151,VALID,0,VALID,20.6959,VALID,15,VALID,0.574219,
2011-05-25, 03:10:05,VALID,915.555,VALID,0,VALID,96.2151,VALID,0,VALID,20.7381,VALID,15,VALID,0.367188,
2011-05-25, 03:11:05,VALID,915.512,VALID,0,VALID,96.2151,VALID,0,VALID,20.6975,VALID,15,VALID,0.522266,
2011-05-25, 03:12:05,VALID,915.522,VALID,0,VALID,96.2533,VALID,0,VALID,20.699,VALID,15,VALID,0.416406,
2011-05-25, 03:13:05,VALID,915.492,VALID,0,VALID,96.2685,VALID,0,VALID,20.6569,VALID,15,VALID,0.335156,
2011-05-25, 03:14:05,VALID,915.456,VALID,0,VALID,96.2761,VALID,0,VALID,20.6569,VALID,15,VALID,0.439453,
2011-05-25, 03:15:05,VALID,915.476,VALID,0,VALID,96.2761,VALID,0,VALID,20.6358,VALID,15,VALID,0.399219,
2011-05-25, 03:16:05,VALID,915.451,VALID,0,VALID,96.3219,VALID,0,VALID,20.678,VALID,15,VALID,0.335547,
2011-05-25, 03:17:05,VALID,915.442,VALID,0,VALID,96.3524,VALID,0,VALID,20.6585,VALID,15,VALID,0.382031,
2011-05-25, 03:18:05,VALID,915.387,VALID,0,VALID,96.3676,VALID,0,VALID,20.6585,VALID,15,VALID,0.35625,
2011-05-25, 03:19:05,VALID,915.386,VALID,0,VALID,96.3905,VALID,0,VALID,20.6179,VALID,15,VALID,0.497656,
2011-05-25, 03:20:05,VALID,915.369,VALID,0,VALID,96.4286,VALID,0,VALID,20.639,VALID,15,VALID,0.372656,
2011-05-25, 03:21:05,VALID,915.351,VALID,0,VALID,96.4667,VALID,0,VALID,20.639,VALID,15,VALID,0.253516,
2011-05-25, 03:22:05,VALID,915.351,VALID,0,VALID,96.4972,VALID,0,VALID,20.639,VALID,15,VALID,0.00664063,
2011-05-25, 03:23:05,VALID,915.338,VALID,0,VALID,96.4896,VALID,0,VALID,20.6194,VALID,15,VALID,0.151172,
2011-05-25, 03:24:05,VALID,915.333,VALID,0,VALID,96.5048,VALID,0,VALID,20.639,VALID,15,VALID,0,
2011-05-25, 03:25:05,VALID,915.294,VALID,0,VALID,96.5201,VALID,0,VALID,20.639,VALID,15,VALID,0,
2011-05-25, 03:26:05,VALID,915.304,VALID,0,VALID,96.5734,VALID,0,VALID,20.639,VALID,15,VALID,0,
2011-05-25, 03:27:05,VALID,915.304,VALID,0,VALID,96.5658,VALID,0,VALID,20.6179,VALID,15,VALID,0,
2011-05-25, 03:28:05,VALID,915.311,VALID,0,VALID,96.5506,VALID,0,VALID,20.6194,VALID,15,VALID,0,
2011-05-25, 03:29:05,VALID,915.313,VALID,0,VALID,96.5429,VALID,0,VALID,20.5789,VALID,15,VALID,0.45,
2011-05-25, 03:30:05,VALID,915.304,VALID,0,VALID,96.5429,VALID,0,VALID,20.5594,VALID,15,VALID,0.739062,
2011-05-25, 03:31:05,VALID,915.303,VALID,0,VALID,96.4819,VALID,0,VALID,20.5204,VALID,15,VALID,0.586328,
2011-05-25, 03:32:05,VALID,915.321,VALID,0,VALID,96.5201,VALID,0,VALID,20.4813,VALID,15,VALID,0.741406,
2011-05-25, 03:33:05,VALID,915.29,VALID,0,VALID,96.5582,VALID,0,VALID,20.4618,VALID,15,VALID,0.772266,
2011-05-25, 03:34:05,VALID,915.277,VALID,0,VALID,96.5353,VALID,0,VALID,20.4033,VALID,15,VALID,0.791797,
2011-05-25, 03:35:05,VALID,915.255,VALID,0,VALID,96.5124,VALID,0,VALID,20.3838,VALID,15,VALID,0.856641,
2011-05-25, 03:36:05,VALID,915.235,VALID,0,VALID,96.5963,VALID,0,VALID,20.3659,VALID,15,VALID,0.853516,
2011-05-25, 03:37:05,VALID,915.227,VALID,0,VALID,96.6115,VALID,0,VALID,20.3269,VALID,15,VALID,0.919922,
2011-05-25, 03:38:05,VALID,915.219,VALID,0,VALID,96.6497,VALID,0,VALID,20.3284,VALID,15,VALID,0.974219,
2011-05-25, 03:39:05,VALID,915.224,VALID,0,VALID,96.7335,VALID,0,VALID,20.3253,VALID,15,VALID,0.948828,
2011-05-25, 03:40:05,VALID,915.238,VALID,0,VALID,96.7869,VALID,0,VALID,20.3448,VALID,15,VALID,0.834375,
2011-05-25, 03:41:05,VALID,915.274,VALID,0,VALID,96.8021,VALID,0,VALID,20.3854,VALID,15,VALID,0.801172,
2011-05-25, 03:42:05,VALID,915.25,VALID,0,VALID,96.8326,VALID,0,VALID,20.3838,VALID,15,VALID,0.933203,
2011-05-25, 03:43:05,VALID,915.255,VALID,0,VALID,96.8403,VALID,0,VALID,20.3854,VALID,15,VALID,0.748438,
2011-05-25, 03:44:05,VALID,915.239,VALID,0,VALID,96.8403,VALID,0,VALID,20.4259,VALID,15,VALID,0.620703,
2011-05-25, 03:45:05,VALID,915.275,VALID,0,VALID,96.8631,VALID,0,VALID,20.3823,VALID,15,VALID,0.480859,
2011-05-25, 03:46:05,VALID,915.254,VALID,0,VALID,96.8707,VALID,0,VALID,20.3838,VALID,15,VALID,0.707812,
2011-05-25, 03:47:05,VALID,915.268,VALID,0,VALID,96.9012,VALID,0,VALID,20.4813,VALID,15,VALID,0.557813,
2011-05-25, 03:48:05,VALID,915.22,VALID,0,VALID,96.9089,VALID,0,VALID,20.582,VALID,15,VALID,0.571484,
2011-05-25, 03:49:05,VALID,915.215,VALID,0,VALID,96.9394,VALID,0,VALID,20.5594,VALID,15,VALID,0.675781,